Tracking 25723 objects as of 26-Jun-2022
HD Live streaming from Space Station
objects crossing your sky now

DMSP 5D-2 F13 DEB

Track DMSP 5D-2 F13 DEB now!
10-day predictions


NORAD ID: 40559
Int'l Code: 1995-015DS
Perigee: 811.2 km
Apogee: 887.6 km
Inclination: 98.6 °
Period: 101.8 minutes
Semi major axis: 7220 km
RCS: Unknown
Launch date: March 24, 1995
Source: United States (US)
Launch site: AIR FORCE WESTERN TEST RANGE (AFWTR)

Note: This is SATELLITE DEBRIS
aabbcc
Your satellite tracking list
Your tracking list is empty




NASA's NSSDC Master Catalog

Two Line Element Set (TLE):
1 40559U 95015DS  22176.06808260  .00003751  00000-0  19322-2 0  9996
2 40559  98.5686  98.6056 0052894 140.5375 219.9670 14.15012926371943
Source of the keplerian elements: AFSPC